English version Home page |
Updated on November 20, 2022 |
プロフィール
|
軌道要素Epoch = 2016 Sept. 9.0 TT T = 2016 Sept.18.30133 TT Peri. = 199.54417 e = 0.0433682 Node = 4.96322 2000.0 q = 6.0390160 AU Incl. = 6.69876 a = 6.3127902 AU n = 0.06214011 P = 15.86 years
|
光度変化H = 14.0 G = 0.15
|
軌道要素は、CBET 5191に掲載されたものです。
|